This is the latest recevied weather packets stored in our database for station/object K1WJY. If no packets are shown the sender has not sent any weather packets the latest 10 day(s).
| Time | Temp. | Humidity | Pressure | Rain* | Wind** | Luminosity | Snow |
|---|---|---|---|---|---|---|---|
| 1777058011 | 6.11° C | 63% | 1013 hPa | 0 mm | - | 127 W/m² | - |
| 1777057711 | 6.67° C | 62% | 1013 hPa | 0 mm | - | 93 W/m² | - |
| 1777057406 | 6.67° C | 64% | 1013.1 hPa | 0 mm | - | 92 W/m² | - |
| 1777057102 | 7.22° C | 62% | 1012.9 hPa | 0 mm | - | 120 W/m² | - |
| 1777056797 | 7.78° C | 56% | 1012.7 hPa | 0 mm | - | 215 W/m² | - |
| 1777056493 | 8.33° C | 57% | 1012.8 hPa | 0 mm | - | 286 W/m² | - |
| 1777056193 | 7.22° C | 58% | 1012.6 hPa | 0 mm | - | 347 W/m² | - |
| 1777055890 | 7.22° C | 59% | 1012.7 hPa | 0 mm | - | 317 W/m² | - |
| 1777055586 | 7.78° C | 58% | 1012.6 hPa | 0 mm | - | 257 W/m² | - |
| 1777055286 | 7.78° C | 55% | 1012.5 hPa | 0 mm | - | 245 W/m² | - |
| 1777054986 | 7.78° C | 53% | 1012.8 hPa | 0 mm | - | 281 W/m² | - |
| 1777054682 | 7.22° C | 56% | 1012.5 hPa | 0 mm | - | 281 W/m² | - |
| 1777054379 | 7.22° C | 58% | 1012.7 hPa | 0 mm | - | 271 W/m² | - |
| 1777054077 | 7.22° C | 55% | 1012.6 hPa | 0 mm | - | 190 W/m² | - |
| 1777053773 | 7.78° C | 56% | 1012.5 hPa | 0 mm | - | 167 W/m² | - |
| 1777053472 | 7.78° C | 54% | 1012.7 hPa | 0 mm | - | 197 W/m² | - |
| 1777053168 | 8.33° C | 53% | 1012.5 hPa | 0 mm | - | 229 W/m² | - |
| 1777052864 | 7.78° C | 54% | 1012.1 hPa | 0 mm | - | 249 W/m² | - |
| 1777052559 | 8.33° C | 52% | 1012.4 hPa | 0 mm | - | 239 W/m² | - |
| 1777052256 | 8.33° C | 54% | 1012.3 hPa | 0 mm | - | 341 W/m² | - |
| 1777051951 | 8.33° C | 55% | 1012.3 hPa | 0 mm | - | 391 W/m² | - |
* Rain latest hour (hover to see other rain measurements)
** Current wind speed in m/s (hover to see current wind gust speed)